EST,Max TemperatureF,Mean TemperatureF,Min TemperatureF,Max Dew PointF,MeanDew PointF,Min DewpointF,Max Humidity, Mean Humidity, Min Humidity, Max Sea Level PressureIn, Mean Sea Level PressureIn, Min Sea Level PressureIn, Max VisibilityMiles, Mean VisibilityMiles, Min VisibilityMiles, Max Wind SpeedMPH, Mean Wind SpeedMPH, Max Gust SpeedMPH,PrecipitationIn, CloudCover, Events, WindDirDegrees
2011-11-1,52,40,30,37,33,30,95,80,53,30.40,30.38,30.35,10,10,7,9,3,,0.00,4,,338
2011-11-2,55,42,29,40,35,28,97,82,50,30.41,30.33,30.22,10,10,5,8,2,,0.00,2,,216
2011-11-3,59,44,30,40,36,30,100,79,46,30.22,30.04,29.87,10,8,0,10,3,,0.00,3,Fog,242
2011-11-4,51,42,32,40,28,20,79,56,33,30.25,30.03,29.87,10,10,10,20,10,31,0.00,4,,312
2011-11-5,50,38,27,29,24,20,90,64,30,30.47,30.39,30.27,10,10,10,9,5,,0.00,0,,295
2011-11-6,58,41,24,28,22,16,90,55,19,30.48,30.39,30.30,10,10,10,13,3,,0.00,0,,228
2011-11-7,64,49,34,41,34,31,90,61,31,30.27,30.20,30.14,10,10,10,12,7,,0.00,1,,236
2011-11-8,66,54,43,46,44,40,91,70,45,30.24,30.20,30.16,10,10,10,10,5,,0.00,2,,249
2011-11-9,66,53,40,51,47,40,99,83,57,30.22,30.15,30.07,10,9,5,13,3,,0.00,1,Fog,159
2011-11-10,63,57,51,58,55,50,100,96,78,30.06,29.78,29.47,10,3,0,13,4,,0.70,8,Fog-Rain,93
2011-11-11,55,46,36,55,36,22,100,72,35,29.81,29.52,29.39,10,10,10,21,11,32,0.00,6,Rain,280
2011-11-12,52,42,33,29,26,23,71,54,33,30.09,29.98,29.84,10,10,10,17,8,26,0.00,3,,226
2011-11-13,61,46,30,43,37,27,88,67,45,30.15,30.04,29.91,10,10,10,12,4,,0.00,6,,190
2011-11-14,66,59,52,51,44,39,80,57,42,29.89,29.79,29.68,10,10,8,12,7,,0.00,7,Rain,215
2011-11-15,65,58,48,52,46,38,84,64,46,29.94,29.75,29.60,10,10,8,14,8,24,0.00,7,Rain,246
2011-11-16,59,49,39,54,49,39,100,93,65,29.96,29.80,29.68,10,4,0,7,2,,0.22,8,Fog-Rain,189
2011-11-17,52,44,37,52,36,26,100,74,48,29.84,29.76,29.67,10,9,1,14,7,22,0.00,8,Rain,287
2011-11-18,45,38,31,24,20,16,64,51,33,30.37,30.18,29.87,10,10,10,15,11,25,0.00,1,,260
2011-11-19,53,41,29,32,22,19,70,48,27,30.35,30.27,30.17,10,10,10,16,8,22,0.00,5,,206
2011-11-20,63,53,43,44,40,33,72,60,47,30.15,30.01,29.92,10,10,10,17,9,23,0.00,6,,229
2011-11-21,51,40,28,37,26,20,81,59,42,30.37,30.29,30.09,10,10,10,16,9,,0.00,4,,345
2011-11-22,45,34,24,34,28,22,90,74,53,30.43,30.35,30.24,10,10,10,8,3,,0.00,5,Rain,304
2011-11-23,41,36,31,39,33,24,93,85,75,30.20,29.84,29.66,10,7,2,22,14,31,1.30,7,Rain-Snow,23
2011-11-24,42,34,26,30,27,22,86,74,58,30.15,30.09,29.98,10,10,10,10,6,18,0.00,3,,280
2011-11-25,58,43,28,38,33,27,95,68,45,30.10,30.02,29.96,10,10,7,12,5,,0.00,4,,248
2011-11-26,61,51,41,42,36,33,93,62,41,30.22,30.13,30.01,10,10,10,12,5,,0.00,6,,268
2011-11-27,50,44,37,48,44,37,100,97,86,30.23,30.18,30.09,10,3,0,8,4,,0.00,6,Fog,43
2011-11-28,63,52,42,52,48,42,100,83,61,30.11,30.07,30.04,10,8,0,14,3,17,0.00,7,Fog,214
2011-11-29,55,52,49,54,51,48,96,91,83,30.12,30.02,29.75,10,10,7,16,3,,0.00,8,Rain,104
2011-11-30,57,49,41,57,42,31,99,71,46,29.82,29.66,29.57,10,9,2,23,13,30,0.53,4,Rain,210